Regional Weather Roundup
Issued by NWS

Current Version | Previous Version | Text Only | Print | Product List | Glossary On
Versions: 1 2 3 4 5 6 7 8 9 10 11 12 13 14 15 16 17 18 19 20 21 22 23 24 25 26 27 28 29 30 31 32 33 34 35 36 37 38 39 40 41 42 43 44 45 46 47 48 49 50
881
ASUS46 KPQR 292210
RWROR

OREGON REGIONAL WEATHER ROUNDUP
NATIONAL WEATHER SERVICE PORTLAND OR
300 PM PDT FRI JUL 29 2016

NOTE: "FAIR" INDICATES FEW OR NO CLOUDS BELOW 12,000 FEET WITH
NO SIGNIFICANT WEATHER AND/OR OBSTRUCTIONS TO VISIBILITY.

ORZ001>013-292300-
NORTHWEST OREGON


CITY           SKY/WX    TMP DP  RH WIND       PRES   REMARKS
ASTORIA        SUNNY     68  58  70 W14G20    30.01S
NEWPORT        CLOUDY    63  57  82 N22G30    30.03F
PORTLAND       MOSUNNY   92  56  29 NW15G21   29.89F HX  90
VANCOUVER WA   SUNNY     90  57  32 NW10G21   29.89F
SCAPPOOSE      SUNNY     92  56  29 NW12G18   29.88F HX  90
HILLSBORO      SUNNY     95  54  25 NW16      29.89F HX  93
AURORA         SUNNY     93  55  27 NE8       29.90F HX  91
MCMINNVILLE    SUNNY     96  56  26 N9        29.90F HX  94
SALEM          SUNNY     94  55  26 N9        29.89F HX  92
CORVALLIS        N/A     93  57  29 NW7       29.92F HX  92
EUGENE         SUNNY     95  51  22 N13G21    29.90F HX  92
$$

ORZ021-028-292300-
SOUTHWEST OREGON


CITY           SKY/WX    TMP DP  RH WIND       PRES   REMARKS
NORTH BEND     CLOUDY    64  57  77 N26G37    29.98F
BROOKINGS      SUNNY     67  55  65 S5        29.85S
ROSEBURG       SUNNY     97  46  17 N14       29.88F HX  93
SEXTON SUMMIT  SUNNY     85  53  33 VRB3      30.05F
MEDFORD        SUNNY    101  54  20 MISG      29.83F HX  99
$$

ORZ014>016-041-292300-
COLUMBIA GORGE


CITY           SKY/WX    TMP DP  RH WIND       PRES   REMARKS
TROUTDALE      SUNNY     91  59  33 VRB3      29.88F HX  90
THE DALLES     SUNNY    100  46  16 NW15      29.77F HX  96
$$

ORZ029>031-041-044-049-050-061>064-502-503-505>511-292300-
EASTERN OREGON


CITY           SKY/WX    TMP DP  RH WIND       PRES   REMARKS
REDMOND        SUNNY     98  36  11 N15       29.94F HX  93
BEND           SUNNY     95  43  16 N10       29.96F HX  91
PRINEVILLE     SUNNY     93  41  16 W9        29.96F
KLAMATH FALLS  SUNNY     95  44  17 S7        30.01F HX  91
LAKEVIEW       SUNNY    N/A N/A N/A SE6       30.05F
HERMISTON      SUNNY    103  49  16 N8        29.78F HX  99
PENDLETON      MOSUNNY   99  44  15 E9        29.83F HX  95
JOHN DAY       SUNNY     97  26   8 NW13      29.98F HX  90
MEACHAM        SUNNY     91  40  16 MISG      30.01F
LA GRANDE      SUNNY     97  46  17 NE6       29.92F HX  93
BAKER CITY     SUNNY     94  45  18 NW9       29.96F HX  90
BURNS          SUNNY     97  32  10 W10G21    30.00F HX  91
ROME             N/A    101  32   9 VRB3      29.95F HX  95
ONTARIO        SUNNY     98  51  20 E5        29.86F HX  95
$$




USA.gov is the U.S. government's official web portal to all federal, state and local government web resources and services.